Regional Weather Roundup
Issued by NWS

Home | Current Version | Previous Version | Text Only | Print | Product List | Glossary Off
Versions: 1 2 3 4 5 6 7 8 9 10 11 12 13 14 15 16 17 18 19 20 21 22 23 24 25 26 27 28 29 30 31 32 33 34 35 36 37 38 39 40 41 42 43 44 45 46 47 48 49 50

000
ASUS45 KABQ 300210
RWRNM
WEATHER ROUNDUP FOR NEW MEXICO
NATIONAL WEATHER SERVICE ALBUQUERQUE NM
800 PM MDT SUN MAR 29 2015

NOTE: "FAIR" MEANS FEW OR NO CLOUDS BELOW 12,000 FEET AGL WITH NO
       SIGNIFICANT WEATHER OR OBSTRUCTIONS TO VISION.

      THIS PRODUCT IS RELEASED AS TWO VERSIONS.  ONE VERSION NEAR
      THE TOP OF THE HOUR CONTAINING PRELIMINARY DATA FROM ALBUQUERQUE
      AND OTHER STATIONS.  A FINAL VERSION WITH ADDITIONAL DATA IS
      ISSUED ABOUT 10 MINUTES AFTER THE HOUR.

NMZ501-503-504-510>518-300300-
NORTHWEST PLATEAU/NORTHCENTRAL MOUNTAINS

CITY           SKY/WX    TMP DP  RH WIND       PRES   REMARKS
FARMINGTON     CLEAR     63  10  12 W5        30.15R
LOS ALAMOS     CLOUDY    61  24  24 SE9G17    30.30R
SANTA FE       CLOUDY    63  26  24 SE21G31   30.22R
TAOS           MOCLDY    57  25  28 SE16G28   30.27S
ANGEL FIRE     CLOUDY    46  32  59 SE9       30.39R

$$
NMZ402-403-502-505>509-300300-
WESTCENTRAL MOUNTAINS/SOUTHWEST MOUNTAINS

CITY           SKY/WX    TMP DP  RH WIND       PRES   REMARKS
GALLUP         MOCLDY    59  15  18 SW3       30.22R
GRANTS         MOCLDY    56  11  16 W8        30.23R
SILVER CITY    CLOUDY    61  23  23 N9        30.21S

$$
NMZ407-409-411-412-300300-
SOUTHERN DESERTS

CITY           SKY/WX    TMP DP  RH WIND       PRES   REMARKS
LORDSBURG      FAIR      68  21  17 SW5       30.12S
DEMING         CLOUDY    72  21  14 W5        30.13R
LAS CRUCES     CLOUDY    73  16  11 SW6       30.15R
ALAMOGORDO     MOCLDY    72  12  10 E3        30.11R
T OR C         CLOUDY    74  13   9 W12       30.13R

$$
NMZ519>523-300300-
CENTRAL VALLEYS/CENTRAL HIGHLANDS

CITY           SKY/WX    TMP DP  RH WIND       PRES   REMARKS
ALBUQUERQUE    CLOUDY    70  19  14 E20       30.14R
DOUBLE EAGLE   MOCLDY    63  14  15 E8        30.17R
MORIARTY ARPT  FAIR      62  24  23 SE16      30.25R
CLINES CORNERS CLOUDY    57  27  31 E12       30.30R
BELEN          FAIR      68  13  12 SE5       30.12S
SOCORRO        FAIR      71  12  10 N7        30.10S

$$
NMZ524>526-539-540-300300-
SOUTHCENTRAL MOUNTAINS

CITY           SKY/WX    TMP DP  RH WIND       PRES   REMARKS
RUIDOSO        CLOUDY    61  19  20 SE13      30.31R

$$
NMZ527>531-300300-
NORTHEAST HIGHLANDS/NORTHEAST PLAINS

CITY           SKY/WX    TMP DP  RH WIND       PRES   REMARKS
LAS VEGAS      CLOUDY    54  24  31 SE12      30.32R
RATON          MOCLDY    54  33  45 W14       30.26S
CLAYTON        CLOUDY    56  25  30 SE8       30.25R

$$
NMZ532>537-300300-
EASTCENTRAL PLAINS

CITY           SKY/WX    TMP DP  RH WIND       PRES   REMARKS
TUCUMCARI      MOCLDY    56  24  29 E8        30.22R
CANNON AFB     NOT AVBL
CLOVIS AIRPORT PTCLDY    55  27  33 NE9       30.24R

$$
NMZ028-029-538-300300-
SOUTHEAST PLAINS

CITY           SKY/WX    TMP DP  RH WIND       PRES   REMARKS
ROSWELL        PTCLDY    71  33  24 E12       30.13R
ARTESIA        PTCLDY    73  28  19 E9        30.11R
CARLSBAD       PTCLDY    72  31  22 E10       30.07R
HOBBS          CLEAR     72  28  20 NE16      30.16R


$$



USA.gov is the U.S. government's official web portal to all federal, state and local government web resources and services.